{"data":{"norad_id":55452,"epoch":"2026-09-20T14:05:09.357504Z","epoch_age_seconds":92860,"freshness":"FRESH","line1":"1 55452U 23015D   26263.58691386 -.00000364  00000+0 -37058-5 0  9999","line2":"2 55452  43.0052 308.5074 0001818 288.8617  71.2038 15.27574051200529","mean_motion":15.27574051,"eccentricity":0.0001818,"inclination_deg":43.0052,"raan_deg":308.5074,"arg_perigee_deg":288.8617,"mean_anomaly_deg":71.2038,"bstar":-3.7058e-6,"rev_number":20052,"period_min":94.267115827041,"perigee_km":481.81954267285,"apogee_km":484.31427641436,"semimajor_km":6861.2039095436,"source":"CELESTRAK","updated_at":"2026-09-21T09:00:33.225899Z"}}